DLH6CH EDDF-EGLL

Flight info

Callsign DLH6CH
Flight time 1h 5m
Altitude 36000
Route OBOKA2E OBOKA Z29 TORNU DCT ABNED L980 LOGAN LOGAN2H
Aircraft A320/M-SDE3FGHIRWY/LB1

Departure

Time 2026-04-15 08:04
Airport Frankfurt Main Airport (EDDF)

Arrival

Time 2026-04-15 09:10
Airport London Heathrow Airport (EGLL)
Time Latitude Longitude Altitude Speed Heading
2026-04-15 07:31 50.04698 8.57094 356 ft 0 kts 115°
2026-04-15 07:53 50.04702 8.57081 358 ft 3 kts 115°
2026-04-15 07:53 50.04712 8.57048 356 ft 3 kts 116°
2026-04-15 07:53 50.04722 8.57018 357 ft 3 kts 138°
2026-04-15 07:54 50.04741 8.57004 361 ft 3 kts 185°
2026-04-15 07:54 50.04763 8.57013 360 ft 3 kts 204°
2026-04-15 07:54 50.04774 8.57020 360 ft 0 kts 205°
2026-04-15 07:57 50.04733 8.56990 362 ft 11 kts 205°
2026-04-15 07:58 50.04665 8.56942 364 ft 10 kts 205°
2026-04-15 07:58 50.04605 8.56910 356 ft 9 kts 193°
2026-04-15 07:58 50.04549 8.56889 361 ft 9 kts 193°
2026-04-15 07:58 50.04461 8.56858 359 ft 17 kts 191°
2026-04-15 07:59 50.04350 8.56829 360 ft 15 kts 191°
2026-04-15 07:59 50.04255 8.56788 364 ft 14 kts 216°
2026-04-15 07:59 50.04215 8.56646 359 ft 17 kts 250°
2026-04-15 07:59 50.04169 8.56453 361 ft 20 kts 249°
2026-04-15 08:00 50.04118 8.56239 355 ft 22 kts 250°
2026-04-15 08:00 50.04061 8.56002 354 ft 24 kts 250°
2026-04-15 08:00 50.03999 8.55745 352 ft 26 kts 250°
2026-04-15 08:00 50.03934 8.55469 357 ft 28 kts 250°
2026-04-15 08:01 50.03866 8.55187 350 ft 28 kts 249°
2026-04-15 08:01 50.03806 8.54935 356 ft 24 kts 249°
2026-04-15 08:01 50.03759 8.54748 354 ft 15 kts 238°
2026-04-15 08:01 50.03681 8.54713 348 ft 6 kts 161°
2026-04-15 08:02 50.03668 8.54721 344 ft 0 kts 158°
2026-04-15 08:02 50.03665 8.54723 352 ft 4 kts 159°
2026-04-15 08:02 50.03606 8.54757 352 ft 10 kts 159°
2026-04-15 08:02 50.03589 8.54834 349 ft 8 kts 68°
2026-04-15 08:03 50.03590 8.54840 348 ft 0 kts 69°
2026-04-15 08:03 50.03619 8.54959 344 ft 41 kts 69°
2026-04-15 08:03 50.03805 8.55732 352 ft 108 kts 69°
2026-04-15 08:04 50.04112 8.57010 369 ft 155 kts 68°
2026-04-15 08:04 50.04513 8.58717 812 ft 170 kts 69°
2026-04-15 08:04 50.04921 8.60440 1622 ft 168 kts 71°
2026-04-15 08:04 50.05399 8.62180 2122 ft 186 kts 57°
2026-04-15 08:05 50.06484 8.63468 2476 ft 213 kts 18°
2026-04-15 08:05 50.07995 8.63595 3219 ft 222 kts 360°
2026-04-15 08:05 50.09552 8.63478 4154 ft 224 kts 359°
2026-04-15 08:05 50.11136 8.63360 4886 ft 237 kts 359°
2026-04-15 08:06 50.12868 8.63237 5362 ft 259 kts 359°
2026-04-15 08:06 50.14681 8.63111 6103 ft 268 kts 358°
2026-04-15 08:06 50.16589 8.62978 6947 ft 274 kts 358°
2026-04-15 08:06 50.18509 8.62844 7781 ft 278 kts 357°
2026-04-15 08:07 50.20435 8.62708 8619 ft 282 kts 357°
2026-04-15 08:07 50.22400 8.62420 9446 ft 287 kts 346°
2026-04-15 08:07 50.24228 8.61119 10098 ft 292 kts 322°
2026-04-15 08:07 50.25183 8.59652 10229 ft 291 kts 305°
2026-04-15 08:08 50.26012 8.56753 10359 ft 303 kts 281°
2026-04-15 08:08 50.26466 8.53413 10675 ft 323 kts 290°
2026-04-15 08:08 50.27579 8.50299 11302 ft 331 kts 302°
2026-04-15 08:08 50.28854 8.47287 12078 ft 334 kts 303°
2026-04-15 08:09 50.30154 8.44259 12869 ft 336 kts 303°
2026-04-15 08:09 50.31442 8.41237 13632 ft 339 kts 302°
2026-04-15 08:09 50.32742 8.38137 14355 ft 341 kts 302°
2026-04-15 08:09 50.34038 8.35001 15020 ft 344 kts 302°
2026-04-15 08:10 50.35337 8.31828 15679 ft 348 kts 302°
2026-04-15 08:10 50.36641 8.28626 16361 ft 350 kts 302°
2026-04-15 08:10 50.37958 8.25387 17012 ft 353 kts 302°
2026-04-15 08:10 50.39280 8.22122 17647 ft 357 kts 302°
2026-04-15 08:11 50.40619 8.18812 18275 ft 360 kts 302°
2026-04-15 08:11 50.41965 8.15477 18849 ft 364 kts 302°
2026-04-15 08:11 50.43322 8.12113 19384 ft 367 kts 303°
2026-04-15 08:11 50.44695 8.08707 19916 ft 370 kts 303°
2026-04-15 08:12 50.46078 8.05272 20216 ft 372 kts 303°
2026-04-15 08:12 50.47445 8.01874 20290 ft 373 kts 303°
2026-04-15 08:12 50.48830 7.98430 20380 ft 375 kts 303°
2026-04-15 08:12 50.50228 7.94952 20937 ft 377 kts 303°
2026-04-15 08:13 50.51634 7.91450 21467 ft 380 kts 303°
2026-04-15 08:13 50.53052 7.87920 21987 ft 382 kts 303°
2026-04-15 08:13 50.54473 7.84377 22492 ft 385 kts 303°
2026-04-15 08:13 50.55907 7.80795 23008 ft 387 kts 303°
2026-04-15 08:14 50.57348 7.77183 23503 ft 390 kts 303°
2026-04-15 08:14 50.58776 7.73598 23964 ft 393 kts 303°
2026-04-15 08:14 50.60231 7.69937 24376 ft 395 kts 303°
2026-04-15 08:14 50.61692 7.66255 24815 ft 396 kts 303°
2026-04-15 08:15 50.63156 7.62563 25254 ft 397 kts 303°
2026-04-15 08:15 50.64622 7.58864 25718 ft 398 kts 303°
2026-04-15 08:15 50.66088 7.55158 26152 ft 398 kts 303°
2026-04-15 08:15 50.67556 7.51447 26571 ft 399 kts 303°
2026-04-15 08:16 50.69014 7.47762 26967 ft 401 kts 303°
2026-04-15 08:16 50.70491 7.44019 27368 ft 402 kts 303°
2026-04-15 08:16 50.71971 7.40251 27769 ft 404 kts 303°
2026-04-15 08:16 50.73450 7.36466 28176 ft 405 kts 303°
2026-04-15 08:17 50.74916 7.32657 28567 ft 407 kts 301°
2026-04-15 08:17 50.76300 7.28732 28952 ft 409 kts 300°
2026-04-15 08:17 50.77594 7.24783 29326 ft 410 kts 298°
2026-04-15 08:17 50.78873 7.20725 29705 ft 412 kts 298°
2026-04-15 08:18 50.80141 7.16654 30059 ft 414 kts 298°
2026-04-15 08:18 50.81421 7.12570 30399 ft 415 kts 298°
2026-04-15 08:18 50.82717 7.08482 30689 ft 416 kts 298°
2026-04-15 08:18 50.84030 7.04389 30959 ft 417 kts 298°
2026-04-15 08:19 50.85358 7.00286 31212 ft 419 kts 298°
2026-04-15 08:19 50.86684 6.96216 31473 ft 421 kts 299°
2026-04-15 08:19 50.88027 6.92083 31770 ft 421 kts 298°
2026-04-15 08:19 50.89360 6.87955 32163 ft 419 kts 298°
2026-04-15 08:20 50.90678 6.83849 32560 ft 417 kts 298°
2026-04-15 08:20 50.91987 6.79760 32958 ft 415 kts 298°
2026-04-15 08:20 50.93293 6.75680 33352 ft 414 kts 299°
2026-04-15 08:20 50.94594 6.71606 33740 ft 412 kts 299°
2026-04-15 08:21 50.95885 6.67555 34130 ft 410 kts 299°
2026-04-15 08:21 50.97172 6.63512 34480 ft 409 kts 299°
2026-04-15 08:21 50.98451 6.59486 34783 ft 408 kts 298°
2026-04-15 08:21 50.99729 6.55467 35060 ft 408 kts 298°
2026-04-15 08:22 51.00988 6.51499 35330 ft 407 kts 298°
2026-04-15 08:22 51.02262 6.47479 35601 ft 407 kts 298°
2026-04-15 08:22 51.03532 6.43472 35877 ft 406 kts 298°
2026-04-15 08:22 51.04800 6.39462 36140 ft 405 kts 298°
2026-04-15 08:23 51.06063 6.35457 36230 ft 403 kts 298°
2026-04-15 08:23 51.08546 6.27535 36247 ft 399 kts 298°
2026-04-15 08:24 51.11014 6.19637 36244 ft 398 kts 298°
2026-04-15 08:24 51.13475 6.11741 36242 ft 399 kts 296°
2026-04-15 08:25 51.15113 6.03281 36250 ft 401 kts 287°
2026-04-15 08:25 51.16505 5.94664 36248 ft 401 kts 287°
2026-04-15 08:26 51.17891 5.86102 36239 ft 402 kts 287°
2026-04-15 08:26 51.19800 5.77789 36241 ft 399 kts 294°
2026-04-15 08:27 51.21962 5.69626 36230 ft 399 kts 294°
2026-04-15 08:27 51.24120 5.61453 36222 ft 399 kts 294°
2026-04-15 08:28 51.26250 5.53328 36221 ft 399 kts 294°
2026-04-15 08:28 51.28405 5.45088 36224 ft 399 kts 294°
2026-04-15 08:29 51.30528 5.36942 36228 ft 399 kts 294°
2026-04-15 08:29 51.32659 5.28736 36218 ft 399 kts 293°
2026-04-15 08:30 51.34778 5.20526 36207 ft 399 kts 293°
2026-04-15 08:30 51.36894 5.12305 36209 ft 400 kts 292°
2026-04-15 08:31 51.39006 5.04066 36211 ft 400 kts 292°
2026-04-15 08:31 51.41110 4.95864 36216 ft 400 kts 292°
2026-04-15 08:32 51.43222 4.87602 36215 ft 400 kts 292°
2026-04-15 08:32 51.45315 4.79324 36217 ft 400 kts 292°
2026-04-15 08:33 51.47402 4.71046 36212 ft 400 kts 291°
2026-04-15 08:33 51.49479 4.62827 36217 ft 400 kts 291°
2026-04-15 08:34 51.51561 4.54562 36208 ft 399 kts 291°
2026-04-15 08:34 51.53629 4.46286 36198 ft 399 kts 291°
2026-04-15 08:35 51.55693 4.38012 36191 ft 399 kts 291°
2026-04-15 08:35 51.57753 4.29698 36192 ft 399 kts 291°
2026-04-15 08:36 51.59788 4.21453 36193 ft 399 kts 291°
2026-04-15 08:36 51.61833 4.13151 36191 ft 399 kts 291°
2026-04-15 08:37 51.63872 4.04843 36187 ft 399 kts 291°
2026-04-15 08:37 51.65908 3.96529 36185 ft 399 kts 291°
2026-04-15 08:38 51.67933 3.88196 36182 ft 399 kts 291°
2026-04-15 08:38 51.69952 3.79861 36172 ft 399 kts 290°
2026-04-15 08:39 51.71971 3.71505 36172 ft 400 kts 290°
2026-04-15 08:39 51.73977 3.63194 36166 ft 400 kts 290°
2026-04-15 08:40 51.75987 3.54823 36183 ft 400 kts 290°
2026-04-15 08:40 51.77989 3.46424 36175 ft 400 kts 290°
2026-04-15 08:41 51.79989 3.38026 36179 ft 400 kts 289°
2026-04-15 08:41 51.81987 3.29628 36158 ft 400 kts 289°
2026-04-15 08:42 51.83939 3.21190 36154 ft 400 kts 284°
2026-04-15 08:42 51.84602 3.12380 36153 ft 397 kts 266°
2026-04-15 08:43 51.84034 3.03484 36152 ft 398 kts 264°
2026-04-15 08:43 51.83450 2.94581 36152 ft 398 kts 264°
2026-04-15 08:44 51.82865 2.85678 36161 ft 398 kts 263°
2026-04-15 08:44 51.82271 2.76789 36166 ft 397 kts 263°
2026-04-15 08:45 51.81668 2.67910 36158 ft 397 kts 263°
2026-04-15 08:45 51.81367 2.63519 36003 ft 398 kts 263°
2026-04-15 08:45 51.81061 2.59072 35753 ft 398 kts 263°
2026-04-15 08:45 51.80755 2.54620 35506 ft 399 kts 263°
2026-04-15 08:46 51.80446 2.50169 35254 ft 399 kts 263°
2026-04-15 08:46 51.80132 2.45687 35010 ft 400 kts 263°
2026-04-15 08:46 51.79815 2.41217 34781 ft 401 kts 262°
2026-04-15 08:46 51.79496 2.36747 34544 ft 401 kts 262°
2026-04-15 08:47 51.79175 2.32262 34302 ft 401 kts 262°
2026-04-15 08:47 51.78855 2.27795 33847 ft 399 kts 262°
2026-04-15 08:47 51.78534 2.23351 33257 ft 395 kts 262°
2026-04-15 08:47 51.78226 2.18952 32707 ft 393 kts 262°
2026-04-15 08:48 51.77958 2.14578 32137 ft 391 kts 263°
2026-04-15 08:48 51.77714 2.10213 31546 ft 390 kts 263°
2026-04-15 08:48 51.77475 2.05860 30973 ft 389 kts 263°
2026-04-15 08:48 51.77233 2.01512 30400 ft 392 kts 263°
2026-04-15 08:49 51.76978 1.97094 29757 ft 404 kts 263°
2026-04-15 08:49 51.76708 1.92571 29190 ft 404 kts 262°
2026-04-15 08:49 51.76436 1.88073 28579 ft 401 kts 262°
2026-04-15 08:49 51.76163 1.83603 28001 ft 398 kts 262°
2026-04-15 08:50 51.75891 1.79171 27423 ft 395 kts 262°
2026-04-15 08:50 51.75618 1.74769 26854 ft 393 kts 262°
2026-04-15 08:50 51.75345 1.70396 26285 ft 390 kts 262°
2026-04-15 08:50 51.75072 1.66055 25734 ft 388 kts 262°
2026-04-15 08:51 51.74799 1.61743 25195 ft 385 kts 262°
2026-04-15 08:51 51.74526 1.57443 24624 ft 383 kts 262°
2026-04-15 08:51 51.74251 1.53164 24042 ft 381 kts 262°
2026-04-15 08:51 51.73977 1.48919 23432 ft 380 kts 262°
2026-04-15 08:52 51.73702 1.44689 22844 ft 377 kts 262°
2026-04-15 08:52 51.73521 1.41905 22461 ft 375 kts 261°
2026-04-15 08:52 51.73248 1.37722 21899 ft 373 kts 261°
2026-04-15 08:52 51.72978 1.33584 21341 ft 370 kts 261°
2026-04-15 08:53 51.72621 1.28126 20681 ft 365 kts 261°
2026-04-15 08:53 51.72440 1.25393 20382 ft 362 kts 261°
2026-04-15 08:53 51.72171 1.21350 19830 ft 361 kts 261°
2026-04-15 08:53 51.71908 1.17368 19518 ft 353 kts 261°
2026-04-15 08:54 51.71646 1.13450 19089 ft 349 kts 261°
2026-04-15 08:54 51.71390 1.09636 18507 ft 344 kts 261°
2026-04-15 08:54 51.71129 1.05775 17662 ft 340 kts 261°
2026-04-15 08:54 51.70871 1.02017 17037 ft 342 kts 261°
2026-04-15 08:55 51.70604 0.98157 16522 ft 341 kts 261°
2026-04-15 08:55 51.70346 0.94401 16004 ft 341 kts 261°
2026-04-15 08:55 51.70085 0.90599 15460 ft 341 kts 261°
2026-04-15 08:55 51.69826 0.86801 14926 ft 341 kts 261°
2026-04-15 08:56 51.69562 0.83000 14393 ft 341 kts 261°
2026-04-15 08:56 51.69296 0.79233 13861 ft 334 kts 261°
2026-04-15 08:56 51.69033 0.75553 13301 ft 327 kts 261°
2026-04-15 08:56 51.68775 0.71951 12791 ft 321 kts 261°
2026-04-15 08:57 51.68519 0.68377 12290 ft 320 kts 260°
2026-04-15 08:57 51.68264 0.64820 11786 ft 319 kts 260°
2026-04-15 08:57 51.68014 0.61319 11298 ft 318 kts 260°
2026-04-15 08:57 51.67765 0.57850 11117 ft 300 kts 259°
2026-04-15 08:58 51.67532 0.54574 10996 ft 288 kts 259°
2026-04-15 08:58 51.67085 0.48361 10562 ft 276 kts 259°
2026-04-15 08:58 51.66862 0.45305 10324 ft 274 kts 258°
2026-04-15 08:59 51.66637 0.42253 9945 ft 274 kts 258°
2026-04-15 08:59 51.66385 0.39213 9492 ft 272 kts 252°
2026-04-15 08:59 51.65750 0.36373 9041 ft 268 kts 242°
2026-04-15 08:59 51.64977 0.33648 8600 ft 267 kts 242°
2026-04-15 09:00 51.64182 0.30934 8169 ft 268 kts 241°
2026-04-15 09:00 51.63379 0.28227 7750 ft 267 kts 241°
2026-04-15 09:00 51.62583 0.25579 7345 ft 258 kts 242°
2026-04-15 09:00 51.61811 0.23034 6959 ft 255 kts 241°
2026-04-15 09:01 51.61030 0.20493 6544 ft 250 kts 241°
2026-04-15 09:01 51.60273 0.18043 6114 ft 240 kts 241°
2026-04-15 09:01 51.59561 0.15742 6001 ft 221 kts 241°
2026-04-15 09:01 51.58751 0.13656 5899 ft 220 kts 232°
2026-04-15 09:02 51.57847 0.11692 5647 ft 218 kts 231°
2026-04-15 09:02 51.56934 0.09749 5385 ft 217 kts 231°
2026-04-15 09:02 51.56028 0.07823 5130 ft 215 kts 231°
2026-04-15 09:02 51.55127 0.05908 4881 ft 214 kts 231°
2026-04-15 09:03 51.54229 0.03999 4619 ft 214 kts 231°
2026-04-15 09:03 51.53334 0.02092 4364 ft 214 kts 231°
2026-04-15 09:03 51.52439 0.00187 4115 ft 212 kts 231°
2026-04-15 09:03 51.51558 -0.01704 3976 ft 211 kts 231°
2026-04-15 09:04 51.50683 -0.03605 3985 ft 210 kts 232°
2026-04-15 09:04 51.49812 -0.05469 3871 ft 209 kts 232°
2026-04-15 09:04 51.48921 -0.07312 3614 ft 208 kts 231°
2026-04-15 09:04 51.48044 -0.09142 3369 ft 209 kts 231°
2026-04-15 09:05 51.47176 -0.11006 3112 ft 208 kts 233°
2026-04-15 09:05 51.46600 -0.13128 2991 ft 212 kts 256°
2026-04-15 09:05 51.46528 -0.15508 2986 ft 215 kts 266°
2026-04-15 09:05 51.46534 -0.17824 2981 ft 197 kts 264°
2026-04-15 09:06 51.46536 -0.19937 2926 ft 182 kts 264°
2026-04-15 09:06 51.46535 -0.21890 2731 ft 169 kts 262°
2026-04-15 09:06 51.46533 -0.23743 2510 ft 164 kts 262°
2026-04-15 09:06 51.46528 -0.25572 2296 ft 163 kts 264°
2026-04-15 09:07 51.46525 -0.27391 2076 ft 162 kts 264°
2026-04-15 09:07 51.46523 -0.29180 1861 ft 163 kts 264°
2026-04-15 09:07 51.46520 -0.30994 1641 ft 162 kts 264°
2026-04-15 09:07 51.46518 -0.32735 1443 ft 149 kts 264°
2026-04-15 09:08 51.46516 -0.34323 1235 ft 137 kts 263°
2026-04-15 09:08 51.46513 -0.35829 1046 ft 133 kts 263°
2026-04-15 09:08 51.46508 -0.37310 852 ft 133 kts 264°
2026-04-15 09:08 51.46504 -0.38797 653 ft 136 kts 266°
2026-04-15 09:09 51.46512 -0.40307 512 ft 135 kts 266°
2026-04-15 09:09 51.46502 -0.41795 326 ft 134 kts 266°
2026-04-15 09:09 51.46499 -0.43310 149 ft 133 kts 265°
2026-04-15 09:09 51.46489 -0.44682 89 ft 102 kts 270°
2026-04-15 09:10 51.46488 -0.45560 86 ft 50 kts 270°
2026-04-15 09:10 51.46557 -0.45851 86 ft 16 kts 323°
2026-04-15 09:10 51.46631 -0.45932 87 ft 6 kts 331°
2026-04-15 09:10 51.46648 -0.45948 87 ft 2 kts 330°
2026-04-15 09:11 51.46681 -0.45977 89 ft 8 kts 335°
2026-04-15 09:11 51.46748 -0.45924 90 ft 15 kts 80°
2026-04-15 09:11 51.46749 -0.45843 86 ft 5 kts 90°
2026-04-15 09:11 51.46749 -0.45792 86 ft 4 kts 90°
2026-04-15 09:12 51.46749 -0.45746 86 ft 6 kts 90°
2026-04-15 09:12 51.46749 -0.45649 86 ft 12 kts 90°
2026-04-15 09:12 51.46750 -0.45502 86 ft 13 kts 90°
2026-04-15 09:12 51.46750 -0.45360 86 ft 12 kts 90°
2026-04-15 09:13 51.46750 -0.45234 86 ft 11 kts 90°
2026-04-15 09:13 51.46751 -0.45114 86 ft 13 kts 89°
2026-04-15 09:13 51.46751 -0.44956 86 ft 14 kts 90°
2026-04-15 09:13 51.46751 -0.44811 86 ft 12 kts 90°
2026-04-15 09:14 51.46752 -0.44681 86 ft 11 kts 90°
2026-04-15 09:14 51.46763 -0.44571 90 ft 10 kts 51°
2026-04-15 09:14 51.46821 -0.44554 87 ft 8 kts 359°
2026-04-15 09:14 51.46890 -0.44555 87 ft 11 kts 359°
2026-04-15 09:15 51.46961 -0.44555 86 ft 10 kts 360°
2026-04-15 09:15 51.47023 -0.44556 89 ft 8 kts 355°
2026-04-15 09:15 51.47037 -0.44620 86 ft 6 kts 270°
2026-04-15 09:15 51.47037 -0.44673 86 ft 2 kts 270°
2026-04-15 09:16 51.47037 -0.44681 86 ft 0 kts 270°